Starlink 31623

operational
NORAD ID: 59272 Int'l Des: 2024-050 Owner: SPXS Country: US Constellation: starlink
LEOCIRCULAR

关于 Starlink 31623

正在加载描述...

实时位置

正在加载3D地球...

即将过境

高度历史

Altitude vs Time

uPlot chart will show altitude changes over time

两行轨道根数

1 59272U 24050U 25352.89717590 .00000105 00000-0 15665-4 0 9992
2 59272 53.1599 195.9360 0001154 93.3024 266.8108 15.30193649 98182
Epoch: Dec 18, 2025 • Age: 8 hours

当前状态

高度 479.7 km
速度 7.63 km/s
星下点 47.29°N, 75.21°E
发射日期 Mar 19, 2024
运行时间 1.7 years
类型 internet

技术详情

分类 Payload
质量 730.00 kg
干质量 700.00 kg
总质量 730.00 kg
长度 0.30 m
直径 4.10 m
跨度 29.00 m
形状 Box + pan
制造商 SPXS
平台类型 Starlink V2M
阶段状态 In Orbit
所有者/国家 SPXS/US

大型星座

Loading constellations...